Location: Caltech
(34.1382°N, 118.1253°W)
Time: 12:53:13
(UTC-07:00)

ADEOS II - Visible Passes

Search period start: 30 September 2014 00:00
Search period end: 10 October 2014 00:00
Orbit: 801 x 803 km, 98.3° (Epoch: 30 September)

Date Brightness Start Highest point End Pass type
(mag) Time Alt. Az. Time Alt. Az. Time Alt. Az.
30 Sep 5.3 19:30:03 10° SW 19:33:01 15° W 19:36:00 10° WNW visible
01 Oct 4.5 06:06:39 10° NE 06:11:09 28° E 06:15:36 10° SSE visible
01 Oct 4.5 19:02:24 10° SSW 19:06:50 28° W 19:11:18 10° NW visible
02 Oct 5.2 05:41:55 10° ENE 05:44:58 15° E 05:47:59 10° SE visible
04 Oct 5.2 19:25:32 10° SW 19:28:47 17° W 19:32:04 10° NW visible
05 Oct 4.6 06:02:34 10° NE 06:06:55 26° E 06:11:15 10° SSE visible
05 Oct 4.4 18:58:03 10° SSW 19:02:37 30° W 19:07:12 10° NW visible
06 Oct 5.3 05:38:01 10° ENE 05:40:44 14° E 05:43:25 10° ESE visible
08 Oct 3.6 06:23:48 10° NNE 06:28:49 43° E 06:33:47 10° S visible
08 Oct 5.2 19:21:02 10° SW 19:24:33 18° W 19:28:04 10° NW visible
09 Oct 4.7 05:58:29 10° NE 06:02:41 24° E 06:06:52 10° SSE visible
09 Oct 4.2 18:53:43 10° SSW 18:58:23 33° W 19:03:05 10° NW visible
